Terminal Aerodrome Forecast
Issued by NWS Portland, ME

Home | Current Version | Previous Version | Text Only | Print | Product List | Glossary On
Versions: 1 2 3 4 5 6 7 8 9 10 11 12 13 14 15 16 17 18 19 20 21 22 23
000
FTUS41 KGYX 051721
TAFCON
TAF
KCON 051721Z 0518/0618 18005KT P6SM SCT250
     FM061000 00000KT 1SM BR BKN002
     FM061200 00000KT P6SM SKC
     FM061600 24005KT P6SM FEW060=

USA.gov is the U.S. government's official web portal to all federal, state and local government web resources and services.